QPF
0.00 0.00 0.00 0.00 0.00 0.00 0.00 0.00 0.00 0.00 0.00 0.00 0.00 0.00 0.00 0.00 0.00 0.00 0.00 0.00 0.00 0.00 0.00 0.00 0.00 0.00 0.00 0.00 0.00 0.00 0.00 0.00 0.00 0.00 0.00 0.00 0.00 0.00 0.00 0.00 0.00 0.00 0.00 0.00
0.00 0.00 0.00 0.00 0.00 0.00 0.00 0.00 0.00 0.00 0.00 0.00 0.00 0.00 0.00 0.00 0.00 0.00 0.00 0.00 0.00 0.00 0.00 0.00 0.00 0.00 0.00 0.00 0.00 0.00 0.00 0.00 0.00 0.00 0.00 0.00 0.00 0.00 0.00 0.00 0.00 0.00 0.00 0.00
0.00 0.00 0.00 0.00 0.00 0.00 0.00 0.00 0.00 0.00 0.00 0.00 0.00 0.00 0.00 0.00 0.00 0.00 0.00 0.00 0.00 0.00 0.00 0.00 0.00 0.00 0.00 0.00 0.00 0.00 0.00 0.00 0.00 0.00 0.00 0.00 0.00 0.00 0.00 0.00 0.00 0.00 0.00 0.00
0.00 0.00 0.00 0.00 0.00 0.00 0.00 0.00 0.00 0.00 0.00 0.00 0.00 0.00 0.00 0.00 0.00 0.00 0.00 0.00 0.00 0.00 0.00 0.00 0.00 0.00 0.00 0.00 0.00 0.00 0.00 0.00 0.00 0.00 0.00 0.00 0.00 0.00 0.00 0.00 0.00 0.00 0.00 0.00
0.00 0.00 0.00 0.00 0.00 0.00 0.00 0.00 0.00 0.00 0.00 0.00 0.00 0.00 0.00 0.00 0.00 0.00 0.00 0.00 0.00 0.00 0.00 0.00 0.00 0.00 0.00 0.00 0.00 0.00 0.00 0.00 0.00 0.00 0.00 0.00 0.00 0.00 0.00 0.00 0.00 0.00 0.00 0.00
0.00 0.00 0.00 0.00 0.00 0.00 0.00 0.00 0.00 0.00 0.00 0.00 0.00 0.00 0.00 0.00 0.00 0.00 0.00 0.00 0.00 0.00 0.00 0.00 0.00 0.00 0.00 0.00 0.00 0.00 0.00 0.00 0.00 0.00 0.00 0.00 0.00 0.00 0.00 0.00 0.00 0.00 0.00 0.00
0.00 0.00 0.00 0.00 0.00 0.00 0.00 0.00 0.00 0.00 0.00 0.00 0.00 0.00 0.00 0.00 0.00 0.00 0.00 0.00 0.00 0.00 0.00 0.00 0.00 0.00 0.00 0.00 0.00 0.00 0.00 0.00 0.00 0.00 0.00 0.00 0.00 0.00 0.00 0.00 0.00 0.00 0.00 0.00
0.00 0.00 0.00 0.00 0.00 0.00 0.00 0.00 0.00 0.00 0.00 0.00 0.00 0.00 0.00 0.00 0.00 0.00 0.00 0.00 0.00 0.00 0.00 0.00 0.00 0.00 0.00 0.00 0.00 0.00 0.00 0.00 0.00 0.00 0.00 0.00 0.00 0.00 0.00 0.00 0.00 0.00 0.00 0.00
0.00 0.00 0.00 0.00 0.00 0.00 0.00 0.00 0.00 0.00 0.00 0.00 0.00 0.00 0.00 0.00 0.00 0.00 0.00 0.00 0.00 0.00 0.00 0.00 0.00 0.00 0.00 0.00 0.00 0.00 0.00 0.00 0.00 0.00 0.00 0.00 0.00 0.00 0.00 0.00 0.00 0.00 0.00 0.00
0.00 0.00 0.00 0.00 0.00 0.00 0.00 0.00 0.00 0.00 0.00 0.00 0.00 0.00 0.00 0.00 0.00 0.00 0.00 0.00 0.00 0.00 0.00 0.00 0.00 0.00 0.00 0.00 0.00 0.00 0.00 0.00 0.00 0.00 0.00 0.00 0.00 0.00 0.00 0.00 0.00 0.00 0.00 0.00
0.00 0.00 0.00 0.00 0.00 0.00 0.00 0.00 0.00 0.00 0.00 0.00 0.00 0.00 0.00 0.00 0.00 0.00 0.00 0.00 0.00 0.00 0.00 0.00 0.00 0.00 0.00 0.00 0.00 0.00 0.00 0.00 0.00 0.00 0.00 0.00 0.00 0.00 0.00 0.00 0.00 0.00 0.00 0.00
0.00 0.00 0.00 0.00 0.00 0.00 0.00 0.00 0.00 0.00 0.00 0.00 0.00 0.00 0.00 0.00 0.00 0.00 0.00 0.00 0.00 0.00 0.00 0.00 0.00 0.00 0.00 0.00 0.00 0.00 0.00 0.00 0.00 0.00 0.01 0.01 0.01 0.01 0.00 0.00 0.00 0.00 0.00 0.00
0.00 0.00 0.00 0.00 0.00 0.00 0.00 0.00 0.00 0.00 0.00 0.00 0.00 0.00 0.00 0.00 0.00 0.00 0.00 0.00 0.00 0.00 0.00 0.00 0.00 0.00 0.00 0.00 0.00 0.00 0.00 0.01 0.01 0.02 0.03 0.03 0.02 0.02 0.02 0.01 0.00 0.00 0.00 0.01
0.00 0.00 0.00 0.00 0.00 0.00 0.00 0.00 0.00 0.00 0.00 0.00 0.00 0.00 0.00 0.00 0.00 0.00 0.00 0.00 0.00 0.00 0.00 0.00 0.00 0.00 0.00 0.00 0.00 0.01 0.02 0.03 0.05 0.06 0.06 0.07 0.05 0.03 0.02 0.01 0.01 0.02 0.02 0.04
0.00 0.00 0.00 0.00 0.00 0.00 0.00 0.00 0.00 0.00 0.00 0.00 0.00 0.00 0.00 0.00 0.00 0.00 0.00 0.00 0.00 0.00 0.00 0.00 0.00 0.00 0.00 0.00 0.01 0.03 0.06 0.08 0.10 0.11 0.08 0.07 0.05 0.03 0.03 0.03 0.06 0.07 0.07 0.06
0.00 0.00 0.00 0.00 0.00 0.00 0.00 0.00 0.00 0.00 0.00 0.00 0.00 0.00 0.00 0.00 0.00 0.00 0.00 0.00 0.00 0.00 0.00 0.00 0.00 0.00 0.00 0.01 0.05 0.09 0.12 0.13 0.13 0.14 0.11 0.09 0.05 0.03 0.04 0.07 0.11 0.14 0.10 0.06
0.00 0.00 0.00 0.00 0.00 0.00 0.00 0.00 0.00 0.00 0.00 0.00 0.00 0.00 0.00 0.00 0.00 0.00 0.00 0.00 0.00 0.00 0.00 0.00 0.00 0.00 0.00 0.03 0.06 0.13 0.16 0.16 0.14 0.13 0.14 0.12 0.07 0.03 0.03 0.08 0.12 0.13 0.09 0.03
0.00 0.00 0.00 0.00 0.00 0.00 0.00 0.00 0.00 0.00 0.00 0.00 0.00 0.00 0.00 0.00 0.00 0.00 0.00 0.00 0.00 0.00 0.00 0.00 0.00 0.02 0.01 0.03 0.06 0.11 0.14 0.14 0.11 0.13 0.14 0.10 0.05 0.02 0.04 0.08 0.12 0.11 0.07 0.01
0.00 0.00 0.00 0.00 0.00 0.00 0.00 0.00 0.00 0.00 0.00 0.00 0.00 0.00 0.00 0.00 0.00 0.00 0.00 0.00 0.00 0.00 0.00 0.00 0.00 0.01 0.00 0.02 0.07 0.14 0.12 0.06 0.06 0.11 0.15 0.10 0.04 0.02 0.05 0.14 0.16 0.13 0.05 0.03
0.00 0.00 0.00 0.00 0.00 0.00 0.00 0.00 0.00 0.00 0.00 0.00 0.00 0.00 0.00 0.00 0.00 0.00 0.00 0.00 0.00 0.00 0.00 0.00 0.00 0.00 0.01 0.02 0.10 0.15 0.10 0.07 0.11 0.16 0.14 0.09 0.04 0.03 0.05 0.11 0.16 0.10 0.05 0.05
0.00 0.00 0.00 0.00 0.00 0.00 0.00 0.00 0.00 0.00 0.00 0.00 0.00 0.00 0.00 0.00 0.00 0.00 0.00 0.00 0.00 0.00 0.00 0.00 0.00 0.00 0.01 0.02 0.08 0.14 0.13 0.16 0.17 0.15 0.10 0.07 0.05 0.06 0.06 0.06 0.05 0.02 0.01 0.00
0.00 0.00 0.00 0.00 0.00 0.00 0.00 0.00 0.00 0.00 0.00 0.00 0.00 0.00 0.00 0.00 0.00 0.00 0.00 0.00 0.00 0.00 0.00 0.00 0.00 0.00 0.00 0.01 0.08 0.11 0.16 0.16 0.16 0.10 0.07 0.08 0.06 0.04 0.01 0.00 0.00 0.00 0.00 0.00
0.00 0.00 0.00 0.00 0.00 0.00 0.00 0.00 0.00 0.00 0.00 0.00 0.00 0.00 0.00 0.00 0.00 0.00 0.00 0.00 0.00 0.00 0.00 0.00 0.00 0.00 0.00 0.01 0.08 0.14 0.13 0.10 0.09 0.04 0.02 0.03 0.03 0.02 0.00 0.00 0.00 0.00 0.00 0.00
0.00 0.00 0.00 0.00 0.00 0.00 0.00 0.00 0.00 0.00 0.00 0.00 0.00 0.00 0.00 0.00 0.00 0.00 0.00 0.00 0.00 0.00 0.00 0.00 0.00 0.00 0.00 0.01 0.09 0.12 0.09 0.07 0.03 0.01 0.01 0.00 0.00 0.00 0.00 0.00 0.00 0.00 0.00 0.00
0.00 0.00 0.00 0.00 0.00 0.00 0.00 0.00 0.00 0.00 0.00 0.00 0.00 0.00 0.00 0.00 0.00 0.00 0.00 0.00 0.00 0.00 0.00 0.00 0.00 0.00 0.00 0.02 0.08 0.08 0.05 0.03 0.01 0.00 0.00 0.00 0.00 0.00 0.00 0.00 0.00 0.00 0.00 0.00
0.00 0.00 0.00 0.00 0.00 0.00 0.00 0.00 0.00 0.00 0.00 0.00 0.00 0.00 0.00 0.00 0.00 0.00 0.00 0.00 0.00 0.00 0.00 0.00 0.00 0.00 0.00 0.02 0.08 0.07 0.03 0.01 0.00 0.00 0.00 0.00 0.00 0.00 0.00 0.00 0.00 0.00 0.00 0.00
MSLP
1021.96 1022.84 1024.62 1025.04 1025.05 1024.68 1024.40 1024.40 1024.70 1025.10 1026.23 1027.44 1029.38 1030.93 1031.88 1032.06 1031.74 1031.58 1031.28 1030.94 1030.53 1029.94 1029.26 1028.63 1027.92 1027.13 1026.36 1025.54 1024.67 1023.98 1023.22 1022.34 1021.77 1021.20 1020.32 1019.43 1018.66 1017.82 1017.06 1016.45 1016.19 1015.94 1015.39 1015.19
1023.65 1025.21 1025.92 1025.89 1025.65 1025.17 1024.94 1025.17 1025.52 1025.87 1026.59 1027.34 1029.62 1031.56 1032.53 1032.64 1032.42 1032.29 1031.96 1031.50 1030.71 1029.77 1028.91 1028.30 1027.57 1026.92 1026.21 1025.32 1024.46 1023.68 1022.88 1022.05 1021.37 1020.77 1020.06 1019.71 1018.82 1017.82 1017.08 1016.22 1015.71 1015.28 1014.84 1014.61
1025.28 1026.87 1026.40 1026.17 1026.31 1025.97 1025.97 1026.15 1026.66 1027.06 1026.85 1027.83 1029.30 1031.13 1032.32 1032.95 1032.77 1032.25 1032.14 1031.86 1030.89 1030.02 1028.87 1027.75 1026.82 1026.21 1025.58 1024.80 1023.98 1023.25 1022.41 1021.55 1020.83 1020.26 1019.50 1018.72 1018.06 1017.33 1016.64 1015.91 1015.41 1014.68 1014.21 1013.80
1026.79 1027.11 1027.01 1027.10 1027.29 1027.34 1026.90 1026.49 1026.64 1026.70 1027.22 1027.86 1028.76 1030.45 1032.03 1032.72 1032.39 1032.23 1031.62 1031.07 1030.37 1029.55 1028.79 1028.19 1027.27 1026.13 1025.39 1024.37 1023.53 1022.69 1021.80 1021.01 1020.18 1019.47 1018.95 1018.27 1017.64 1016.72 1015.82 1015.34 1014.75 1014.28 1013.79 1013.13
1028.00 1027.86 1027.92 1027.94 1028.18 1028.10 1027.49 1026.67 1026.86 1027.02 1027.28 1027.66 1028.95 1030.48 1032.49 1032.87 1032.52 1032.04 1031.71 1031.40 1030.73 1029.81 1029.00 1028.05 1027.03 1025.99 1024.84 1023.87 1022.91 1022.08 1021.17 1020.30 1019.41 1018.72 1018.23 1017.51 1016.63 1015.86 1015.06 1014.42 1013.89 1013.19 1012.62 1012.27
1028.42 1028.32 1028.69 1028.96 1028.61 1028.64 1027.91 1027.19 1027.17 1027.29 1027.51 1027.89 1029.35 1030.58 1032.66 1033.27 1033.50 1032.50 1032.12 1031.50 1030.57 1029.42 1028.22 1027.31 1026.27 1025.34 1024.23 1023.21 1022.19 1021.15 1020.13 1019.10 1018.53 1017.88 1017.14 1016.56 1015.85 1014.97 1014.26 1013.46 1012.91 1012.34 1011.80 1011.35
1029.51 1029.59 1029.58 1029.53 1029.40 1029.15 1029.08 1028.45 1028.24 1028.08 1028.05 1028.93 1029.98 1030.77 1032.82 1033.68 1033.61 1033.20 1032.61 1031.43 1030.43 1029.64 1028.45 1027.33 1026.21 1024.63 1023.19 1022.15 1021.25 1020.25 1019.23 1018.08 1017.40 1016.54 1015.78 1015.22 1014.54 1013.80 1013.08 1012.39 1011.74 1011.14 1010.59 1010.25
1031.67 1030.48 1030.97 1031.06 1031.64 1031.67 1031.43 1031.44 1031.99 1032.45 1031.29 1031.13 1031.33 1031.96 1033.24 1034.04 1033.73 1032.50 1031.92 1031.26 1030.22 1029.06 1027.95 1026.89 1025.80 1024.46 1022.90 1021.49 1020.15 1019.14 1018.11 1016.89 1016.07 1015.30 1014.34 1013.75 1013.14 1012.36 1011.60 1011.07 1010.50 1009.97 1009.52 1009.05
1032.97 1032.30 1032.12 1032.39 1032.58 1032.67 1032.84 1033.60 1034.42 1034.22 1034.02 1033.73 1033.19 1033.50 1033.84 1033.89 1033.00 1032.69 1031.57 1030.46 1029.51 1028.47 1027.19 1026.06 1024.80 1023.59 1022.14 1020.77 1019.51 1018.51 1017.25 1016.08 1015.09 1014.12 1013.19 1012.40 1011.61 1010.87 1010.08 1009.49 1009.02 1008.49 1008.25 1007.91
1033.96 1033.67 1033.19 1033.34 1033.38 1034.00 1034.35 1035.28 1035.53 1036.15 1036.37 1035.42 1034.77 1034.22 1034.30 1034.12 1033.50 1032.82 1032.00 1030.79 1029.40 1028.25 1026.99 1025.61 1024.15 1022.75 1021.39 1020.20 1019.09 1017.87 1016.72 1015.58 1014.39 1013.34 1012.49 1011.44 1010.43 1009.66 1008.96 1008.33 1007.58 1007.16 1006.80 1006.60
1034.58 1034.77 1034.54 1034.35 1035.79 1036.11 1035.88 1036.78 1037.47 1038.18 1038.68 1038.51 1037.19 1034.91 1035.08 1034.75 1034.51 1033.67 1032.52 1031.37 1029.89 1028.29 1026.83 1025.35 1023.73 1022.20 1020.94 1019.71 1018.59 1017.36 1016.09 1014.79 1013.63 1012.70 1011.74 1010.60 1009.57 1008.71 1007.89 1007.16 1006.52 1006.09 1005.74 1005.44
1035.36 1035.64 1035.99 1036.82 1037.19 1037.10 1037.56 1038.65 1039.17 1039.86 1040.53 1040.35 1039.97 1036.60 1035.40 1035.14 1034.68 1033.97 1032.68 1031.23 1029.81 1028.34 1026.70 1025.11 1023.51 1022.05 1020.49 1019.13 1017.90 1016.61 1015.44 1014.23 1013.08 1011.99 1010.77 1009.67 1008.70 1007.77 1006.94 1006.17 1005.57 1005.13 1004.74 1004.43
1035.67 1036.36 1036.80 1037.48 1037.88 1037.96 1038.72 1039.75 1040.40 1041.06 1041.65 1041.46 1041.00 1037.08 1035.55 1035.31 1034.73 1033.71 1032.60 1031.10 1029.49 1028.24 1026.45 1024.71 1023.15 1021.70 1020.30 1018.83 1017.46 1016.10 1014.87 1013.65 1012.27 1010.92 1009.72 1008.55 1007.47 1006.50 1005.64 1004.91 1004.28 1003.77 1003.27 1002.99
1036.11 1037.11 1037.60 1038.40 1038.82 1039.32 1039.59 1040.26 1040.85 1041.56 1042.35 1041.79 1040.61 1038.24 1036.69 1035.67 1034.80 1033.19 1032.17 1030.95 1029.48 1028.06 1026.48 1024.74 1022.98 1021.64 1020.49 1018.92 1017.52 1016.00 1014.40 1013.07 1011.63 1010.19 1008.82 1007.58 1006.40 1005.47 1004.52 1003.64 1002.84 1002.29 1001.82 1001.60
1037.16 1038.13 1038.56 1039.29 1039.61 1039.67 1039.99 1040.49 1041.09 1041.46 1041.77 1041.90 1040.28 1039.34 1037.85 1037.01 1035.96 1034.18 1032.71 1030.84 1029.42 1027.86 1026.33 1024.72 1023.02 1021.88 1020.51 1018.98 1017.33 1015.71 1014.20 1012.64 1011.17 1009.58 1008.12 1006.75 1005.45 1004.33 1003.36 1002.39 1001.61 1001.04 1000.56 1000.30
1038.23 1039.00 1039.44 1040.20 1040.26 1040.09 1040.26 1040.46 1040.95 1041.26 1041.39 1041.10 1040.28 1039.11 1037.95 1036.98 1036.01 1034.53 1032.58 1031.11 1029.72 1028.20 1026.57 1024.79 1023.26 1022.06 1020.60 1019.00 1017.36 1015.65 1014.07 1012.43 1010.81 1009.21 1007.64 1005.88 1004.54 1003.42 1002.61 1001.61 1000.58 999.59 998.65 998.76
1039.24 1040.02 1040.67 1041.13 1041.01 1040.61 1040.80 1040.77 1040.93 1041.15 1041.21 1040.68 1039.93 1039.48 1037.41 1035.34 1035.24 1034.29 1032.65 1031.32 1029.90 1028.44 1026.72 1024.90 1023.58 1022.27 1020.81 1019.09 1017.56 1015.84 1014.25 1012.50 1010.76 1009.07 1007.33 1006.14 1004.99 1003.91 1003.00 1001.94 1000.20 998.26 996.45 997.18
1040.03 1041.06 1042.19 1042.06 1041.57 1041.19 1040.88 1040.74 1040.81 1040.78 1040.53 1040.19 1040.28 1039.51 1038.68 1036.78 1035.14 1034.19 1032.74 1031.64 1030.04 1028.60 1026.86 1025.23 1023.87 1022.28 1020.86 1019.31 1017.64 1016.12 1014.44 1012.70 1010.87 1009.11 1008.07 1006.66 1005.76 1004.77 1003.68 1002.25 1000.90 999.66 998.59 998.32
1040.50 1041.64 1043.18 1043.30 1042.42 1041.65 1040.92 1040.62 1040.73 1040.77 1040.19 1040.14 1039.96 1038.86 1038.35 1036.81 1034.71 1032.73 1032.04 1031.37 1030.44 1029.04 1027.47 1025.96 1024.49 1022.77 1021.12 1019.66 1018.02 1016.34 1014.58 1012.93 1011.24 1010.02 1008.80 1007.78 1006.91 1005.82 1004.72 1003.58 1002.54 1001.62 1000.76 1000.29
1041.33 1042.01 1042.76 1043.73 1043.08 1041.89 1040.85 1040.47 1040.51 1040.63 1040.30 1040.02 1039.84 1038.97 1038.07 1037.39 1035.38 1033.11 1032.03 1031.34 1030.04 1028.93 1027.73 1025.98 1024.46 1022.98 1021.59 1019.98 1018.52 1016.84 1015.17 1013.58 1011.93 1010.78 1009.90 1008.96 1008.07 1007.09 1006.13 1005.27 1004.35 1003.56 1002.72 1002.30
1041.94 1043.16 1043.82 1043.94 1043.35 1041.78 1040.91 1040.51 1040.33 1040.72 1040.92 1039.68 1039.66 1038.92 1038.31 1037.70 1036.87 1034.71 1032.88 1031.27 1030.50 1029.22 1027.79 1026.23 1024.81 1023.36 1022.14 1020.61 1019.13 1017.49 1016.06 1014.43 1013.13 1011.88 1011.03 1010.07 1009.19 1008.32 1007.67 1007.00 1006.23 1005.58 1004.95 1004.46
1041.90 1043.14 1043.92 1044.27 1043.44 1041.72 1040.68 1040.69 1040.63 1040.67 1040.06 1039.79 1039.53 1038.85 1038.33 1036.98 1035.87 1034.52 1033.12 1031.52 1030.22 1028.89 1027.27 1026.23 1025.12 1023.74 1022.57 1021.24 1019.87 1018.35 1016.69 1015.46 1014.22 1013.22 1012.24 1011.40 1010.55 1009.72 1009.03 1008.39 1007.90 1007.38 1006.88 1006.57
1041.93 1041.91 1042.33 1042.49 1041.64 1041.04 1040.72 1040.53 1040.49 1040.57 1040.52 1040.17 1039.67 1038.79 1038.14 1037.18 1035.76 1034.45 1033.14 1031.78 1030.55 1029.54 1027.97 1026.85 1025.85 1024.48 1023.20 1021.94 1020.69 1019.33 1017.87 1016.48 1015.35 1014.49 1013.65 1012.84 1012.00 1011.13 1010.45 1009.78 1009.32 1008.93 1008.72 1008.49
1041.36 1041.58 1041.84 1041.94 1041.66 1041.02 1040.74 1040.54 1040.76 1040.81 1040.54 1040.09 1039.70 1038.89 1038.07 1037.00 1035.81 1034.51 1033.26 1032.04 1030.71 1029.71 1028.51 1027.36 1026.26 1025.08 1023.88 1022.61 1021.30 1020.22 1018.85 1017.42 1016.47 1015.73 1015.08 1014.52 1013.73 1012.99 1012.13 1011.54 1011.05 1010.69 1010.43 1010.21
1041.25 1041.62 1041.65 1041.53 1041.04 1040.84 1040.70 1040.60 1040.71 1040.60 1040.16 1039.63 1039.05 1038.57 1037.82 1036.85 1035.75 1034.68 1033.34 1032.23 1031.03 1029.98 1028.93 1027.97 1026.94 1025.88 1024.71 1023.45 1022.04 1020.79 1019.68 1018.37 1017.59 1017.04 1016.46 1015.89 1015.40 1014.93 1014.42 1013.68 1013.24 1012.84 1012.59 1012.21
1040.46 1040.45 1040.97 1040.74 1040.39 1040.43 1040.45 1040.40 1040.40 1040.29 1040.06 1039.58 1039.09 1038.12 1037.22 1036.91 1035.67 1034.83 1033.68 1032.55 1031.36 1030.28 1029.33 1028.25 1027.36 1026.46 1025.40 1024.17 1022.78 1021.59 1020.51 1019.37 1018.65 1018.16 1017.79 1017.38 1016.93 1016.50 1016.10 1015.78 1015.33 1014.81 1014.43 1014.04
Thickness
5693 5686 5663 5657 5653 5657 5656 5650 5647 5641 5627 5612 5589 5566 5552 5543 5535 5522 5513 5501 5488 5476 5468 5459 5449 5440 5433 5429 5425 5419 5416 5415 5410 5409 5408 5410 5411 5418 5425 5428 5428 5428 5432 5436
5680 5660 5657 5654 5652 5653 5650 5643 5636 5628 5617 5610 5573 5546 5532 5524 5513 5500 5487 5473 5463 5459 5452 5440 5431 5421 5412 5405 5400 5395 5392 5391 5387 5383 5383 5378 5381 5390 5394 5402 5403 5404 5407 5410
5663 5652 5655 5653 5643 5644 5636 5632 5621 5611 5608 5592 5567 5539 5523 5507 5496 5485 5470 5453 5444 5431 5425 5422 5417 5406 5399 5393 5388 5383 5381 5379 5376 5370 5370 5370 5370 5372 5377 5381 5383 5388 5389 5394
5652 5649 5646 5641 5634 5628 5623 5630 5616 5605 5595 5594 5570 5566 5510 5489 5484 5467 5453 5443 5428 5416 5412 5399 5393 5393 5388 5387 5383 5380 5377 5374 5371 5368 5364 5362 5360 5363 5369 5369 5374 5378 5380 5385
5642 5639 5634 5631 5626 5621 5620 5620 5603 5596 5585 5576 5556 5543 5484 5470 5463 5450 5436 5422 5405 5397 5387 5387 5385 5384 5384 5380 5377 5373 5372 5370 5370 5367 5362 5359 5360 5361 5364 5369 5370 5376 5379 5380
5637 5636 5628 5621 5620 5613 5613 5608 5597 5579 5575 5576 5538 5528 5467 5453 5436 5432 5416 5401 5390 5388 5392 5389 5387 5383 5381 5377 5374 5372 5372 5373 5367 5362 5361 5358 5356 5359 5360 5365 5366 5369 5373 5376
5626 5622 5617 5613 5612 5606 5596 5591 5597 5597 5583 5574 5519 5519 5454 5437 5422 5405 5385 5383 5383 5379 5379 5377 5374 5378 5380 5377 5371 5369 5369 5371 5367 5366 5364 5360 5358 5358 5359 5362 5364 5367 5370 5372
5611 5628 5600 5596 5585 5578 5566 5556 5556 5541 5550 5542 5503 5498 5465 5426 5414 5406 5394 5384 5383 5382 5379 5373 5369 5367 5369 5371 5372 5370 5369 5371 5368 5366 5368 5365 5362 5362 5363 5362 5362 5362 5362 5365
5595 5606 5593 5581 5568 5560 5557 5538 5515 5510 5486 5478 5474 5463 5441 5422 5414 5397 5392 5389 5385 5381 5380 5374 5372 5369 5368 5368 5369 5366 5367 5367 5366 5365 5367 5368 5368 5366 5367 5365 5363 5362 5360 5359
5578 5587 5579 5572 5564 5549 5538 5516 5514 5487 5458 5474 5453 5445 5437 5402 5388 5382 5378 5377 5377 5375 5372 5370 5370 5368 5369 5368 5365 5365 5365 5363 5364 5364 5363 5365 5368 5368 5368 5367 5368 5366 5365 5363
5567 5566 5575 5558 5531 5523 5522 5501 5480 5460 5445 5438 5417 5451 5400 5384 5367 5363 5366 5368 5368 5368 5366 5365 5368 5372 5370 5370 5368 5368 5368 5370 5370 5368 5366 5368 5369 5371 5371 5371 5371 5369 5368 5366
5556 5545 5548 5527 5513 5508 5492 5473 5457 5443 5432 5398 5373 5404 5396 5382 5367 5361 5364 5367 5368 5368 5365 5366 5370 5370 5374 5376 5375 5376 5376 5376 5374 5373 5374 5374 5374 5375 5375 5375 5375 5373 5371 5369
5555 5538 5547 5530 5513 5500 5483 5464 5442 5417 5391 5388 5375 5409 5411 5381 5370 5370 5365 5367 5368 5365 5368 5372 5375 5376 5378 5382 5382 5384 5382 5380 5381 5382 5382 5383 5384 5384 5384 5384 5383 5382 5381 5378
5548 5523 5533 5539 5511 5479 5474 5457 5435 5415 5397 5379 5380 5384 5385 5373 5367 5371 5367 5366 5365 5367 5370 5375 5381 5381 5380 5384 5383 5383 5385 5385 5386 5388 5390 5392 5396 5396 5397 5398 5398 5395 5394 5390
5533 5526 5513 5491 5480 5479 5466 5451 5433 5395 5401 5374 5389 5367 5363 5353 5351 5358 5361 5368 5369 5371 5374 5379 5383 5383 5385 5385 5387 5389 5391 5393 5393 5398 5401 5406 5410 5413 5414 5415 5415 5411 5408 5404
5517 5511 5501 5485 5476 5470 5458 5446 5431 5416 5405 5389 5377 5371 5364 5359 5357 5359 5367 5368 5367 5370 5376 5383 5387 5387 5387 5387 5390 5394 5397 5400 5405 5410 5416 5424 5430 5433 5431 5432 5434 5435 5434 5425
5511 5501 5485 5495 5460 5464 5456 5439 5430 5413 5398 5388 5373 5365 5368 5378 5363 5357 5362 5368 5370 5374 5380 5387 5388 5388 5387 5392 5394 5398 5402 5409 5415 5420 5430 5434 5437 5439 5438 5439 5448 5460 5469 5453
5503 5480 5454 5470 5458 5475 5451 5437 5425 5410 5402 5388 5370 5365 5351 5361 5367 5362 5369 5369 5374 5379 5385 5390 5392 5396 5397 5400 5404 5406 5410 5417 5424 5431 5432 5438 5439 5440 5442 5446 5456 5462 5465 5460
5491 5474 5429 5460 5456 5453 5442 5437 5423 5408 5403 5387 5375 5371 5357 5365 5376 5392 5386 5378 5375 5379 5383 5388 5393 5399 5404 5405 5409 5413 5419 5425 5433 5434 5436 5438 5438 5442 5443 5447 5451 5454 5458 5456
5483 5462 5460 5416 5444 5468 5443 5432 5417 5404 5399 5386 5374 5367 5360 5354 5364 5380 5379 5377 5383 5386 5387 5396 5402 5406 5409 5411 5415 5420 5426 5430 5437 5438 5437 5438 5439 5440 5441 5443 5446 5446 5450 5449
5461 5432 5438 5436 5421 5438 5432 5425 5415 5406 5401 5390 5373 5366 5354 5351 5351 5362 5373 5383 5383 5387 5393 5400 5406 5411 5412 5417 5421 5427 5430 5435 5438 5442 5442 5442 5441 5441 5441 5441 5441 5441 5441 5440
5482 5450 5436 5395 5403 5443 5432 5424 5414 5407 5395 5383 5371 5367 5355 5362 5364 5368 5375 5383 5390 5395 5404 5407 5410 5414 5417 5421 5425 5431 5438 5440 5443 5443 5446 5444 5444 5445 5445 5446 5444 5443 5442 5438
5476 5468 5455 5444 5451 5437 5429 5423 5413 5400 5388 5378 5370 5366 5357 5359 5367 5371 5377 5384 5390 5393 5402 5407 5409 5414 5419 5423 5427 5431 5437 5443 5445 5446 5447 5448 5448 5449 5449 5450 5447 5444 5439 5435
5469 5455 5455 5445 5438 5431 5426 5417 5405 5395 5386 5377 5367 5364 5357 5362 5368 5372 5379 5384 5392 5396 5402 5408 5411 5415 5419 5425 5429 5432 5437 5445 5446 5447 5446 5445 5448 5448 5450 5449 5447 5443 5438 5434
5468 5453 5445 5440 5437 5430 5424 5416 5404 5394 5387 5376 5370 5365 5360 5364 5367 5372 5380 5386 5392 5398 5403 5407 5410 5414 5419 5424 5431 5436 5439 5446 5447 5446 5447 5447 5446 5445 5444 5445 5443 5440 5435 5433
5463 5461 5455 5447 5440 5432 5423 5414 5404 5397 5388 5378 5370 5366 5364 5365 5370 5373 5377 5385 5393 5400 5404 5409 5411 5414 5419 5426 5432 5437 5441 5448 5448 5447 5447 5446 5445 5445 5443 5440 5440 5440 5437 5436